Location: Daytona Beach
(29.2106°N, 81.0231°W)
Time: 00:19:03
(UTC-04:00)

ISS - Pass Details

Date: 29 June 2021
Orbit: 419 x 421 km, 51.6° (Epoch: 03 August)

Event Time Altitude Azimuth Distance (km) Brightness Sun altitude
Exits shadow 04:27:37 19° 327° (NNW) 1,060 -1.6 -22.0°
Drops below altitude 10° 04:29:55 10° 10° (N) 1,497 -0.2 -21.7°
Sets 04:32:26 0° 28° (NNE) 2,363 1.4 -21.3°
